Terminal Aerodrome Forecast
Issued by NWS Spokane, WA

Home | Current Version | Previous Version | Text Only | Print | Product List | Glossary On
Versions: 1 2 3 4 5 6 7 8 9 10 11 12 13 14 15 16 17 18 19 20 21 22 23 24 25 26 27 28 29 30 31 32 33 34 35 36 37 38 39 40 41 42 43 44 45 46 47 48 49 50
000
FTUS46 KOTX 210641 AAA
TAFEAT
TAF AMD
KEAT 210641Z 2107/2206 31004KT 2SM -RA BR OVC050
     FM211100 30019G28KT P6SM VCSH SCT025 OVC035
     FM211800 30016G26KT P6SM SCT030 BKN080
     FM220100 30012KT P6SM SCT040=

USA.gov is the U.S. government's official web portal to all federal, state and local government web resources and services.